Probability
2 6 16 23 19 7 1 0 0 0 0 0 0 0 0 0 0 0 0 0 0 0 1 3 4 4 3 3 2 1 1 1 2 2 2 1 0 0 0 0 1 1 3 5 6 5 4 4 6
4 10 21 24 14 4 0 0 0 0 0 0 0 0 0 0 0 0 0 0 0 0 1 3 4 4 3 3 2 1 0 1 2 3 4 4 2 1 1 1 1 2 3 4 5 4 3 2 3
11 17 24 21 8 1 0 0 0 0 0 0 0 0 0 0 0 0 0 0 0 0 1 3 5 4 3 3 3 1 1 1 2 4 6 7 4 2 2 1 1 1 3 4 4 4 3 2 2
16 20 21 13 4 0 0 0 0 0 0 0 0 0 0 0 0 0 0 0 0 1 4 6 7 6 4 3 3 2 1 1 3 5 7 8 5 2 1 1 0 1 3 4 4 4 4 4 3
17 18 15 7 2 0 0 0 0 0 0 0 0 0 0 0 0 0 0 0 0 2 4 6 9 8 6 5 4 2 1 1 3 4 6 7 5 1 1 1 1 1 2 4 5 5 5 5 4
16 15 10 4 1 0 0 0 0 0 0 0 1 1 1 1 1 1 0 0 1 2 3 5 7 9 9 7 4 2 1 1 2 3 5 6 3 1 1 2 2 2 3 3 4 4 4 3 2
16 11 6 3 1 0 0 0 0 0 0 0 1 2 1 2 2 1 1 1 2 2 3 4 6 9 10 9 5 2 1 2 2 4 6 5 2 1 2 2 3 4 4 3 2 3 2 1 0
11 7 3 1 0 0 0 0 0 0 0 0 1 1 2 3 3 3 2 2 1 1 2 4 7 9 10 8 4 3 3 4 5 7 8 5 3 2 3 4 4 4 4 3 3 3 3 2 1
4 4 2 0 0 0 0 0 0 1 1 1 1 2 3 3 3 2 2 1 0 0 0 2 6 9 8 4 2 3 5 6 7 10 11 7 3 2 3 4 5 4 4 4 4 5 5 4 2
2 2 1 0 0 0 0 0 0 1 2 3 4 4 4 4 2 1 1 0 0 0 1 2 5 8 7 4 2 3 5 7 7 9 11 8 3 1 2 2 3 3 3 4 6 7 6 3 2
1 2 1 0 0 0 0 0 0 1 3 5 6 6 5 4 2 1 1 1 1 0 1 3 7 8 8 7 5 4 6 7 6 6 8 7 4 2 2 3 4 3 3 3 6 7 5 2 1
0 1 1 0 0 0 0 0 0 1 2 4 5 5 5 3 2 2 2 2 2 2 3 5 8 11 11 9 7 5 5 6 5 5 6 6 5 3 2 4 5 4 2 2 4 4 2 1 1
0 0 1 0 0 0 0 0 1 1 2 3 4 4 4 3 2 3 4 3 3 2 3 6 9 12 12 11 9 5 4 6 7 6 5 5 5 3 3 4 5 4 3 2 2 2 1 1 2
0 0 0 0 0 0 0 0 1 2 3 4 4 5 5 4 3 3 4 4 3 3 3 6 9 11 12 11 9 5 4 6 8 6 4 3 4 4 4 5 5 5 4 3 2 2 2 2 2
0 0 0 0 0 0 1 1 2 2 4 6 6 6 6 5 3 2 3 3 3 4 6 6 8 11 13 12 8 5 4 5 7 7 6 4 4 4 4 5 5 5 5 4 3 3 3 3 2
0 0 0 0 0 0 1 2 3 2 4 7 8 8 7 6 3 2 2 3 5 8 10 9 8 11 13 12 9 5 4 4 7 9 9 7 5 5 5 5 5 5 5 4 4 3 3 3 2
0 0 0 0 0 0 1 2 4 3 4 7 9 9 10 8 6 4 3 5 8 12 14 12 11 12 13 12 9 7 5 5 6 9 10 9 8 7 7 6 6 6 5 4 4 3 3 4 4
0 0 0 0 0 0 0 1 3 3 4 7 9 11 12 13 11 8 6 7 10 14 17 17 15 16 16 14 11 8 7 6 6 8 9 10 8 8 8 8 8 8 7 5 4 4 4 5 5
0 0 0 0 0 0 0 0 1 3 4 6 9 12 15 17 17 13 9 8 11 16 22 23 20 20 20 19 15 11 9 8 7 8 11 11 10 8 8 8 9 9 7 6 6 7 7 6 6
0 0 0 0 0 0 0 0 1 2 4 6 9 13 16 20 21 18 14 12 13 20 27 28 25 23 22 21 18 14 12 11 9 10 14 15 12 9 7 7 8 8 7 7 9 11 11 8 8
0 0 0 1 1 0 0 0 1 2 4 5 8 12 16 20 24 25 22 19 20 24 29 30 31 30 27 23 19 16 15 14 12 13 17 18 16 11 8 7 7 7 8 9 11 14 14 11 9
0 0 0 1 1 0 0 0 1 3 4 5 6 9 13 18 25 28 29 27 25 26 30 37 41 40 35 28 22 19 18 17 17 17 19 21 20 16 12 9 9 9 9 10 12 14 14 12 9
0 0 0 0 0 0 0 0 2 4 5 5 5 6 9 15 24 30 33 33 29 26 31 42 50 48 41 34 28 24 21 21 20 20 20 22 22 20 17 15 15 14 12 12 14 15 15 14 12
0 0 0 0 0 0 0 0 2 5 7 7 6 6 8 13 22 29 34 35 30 27 31 42 52 53 46 38 33 28 26 25 22 21 20 20 19 19 19 21 22 20 17 19 20 19 17 16 15
0 0 0 0 0 0 0 1 2 5 7 8 7 7 8 12 19 25 30 32 29 28 32 42 53 54 47 41 36 33 31 28 25 23 21 18 16 17 20 24 25 24 23 24 25 24 21 20 19
0 0 0 0 0 0 1 2 4 4 6 8 8 7 7 9 14 21 26 29 27 27 32 43 52 54 47 41 39 37 34 30 27 26 23 20 17 18 21 25 27 27 26 27 27 27 26 26 25
0 0 0 0 0 0 1 4 5 5 5 6 6 6 7 7 11 17 24 28 27 26 30 39 49 53 49 44 41 41 37 32 29 28 25 22 21 21 25 28 29 29 29 31 31 29 28 29 29
0 0 0 0 0 0 1 3 4 4 4 4 6 7 7 8 12 18 24 27 28 26 29 36 46 51 50 46 43 41 39 36 32 29 27 25 26 28 32 34 33 32 33 36 35 31 28 28 28
0 0 0 0 0 0 1 2 2 3 3 5 9 11 9 9 15 21 24 27 28 27 28 34 42 47 48 47 45 42 41 40 36 33 32 32 33 35 36 37 36 33 33 35 35 30 26 25 26
0 0 0 1 1 1 1 2 2 3 4 6 12 14 10 9 16 22 24 25 27 27 29 33 38 42 46 48 46 43 43 42 39 37 37 38 40 39 37 37 35 32 31 32 31 28 24 24 24
Wind_Speed
9 11 9 6 5 2 8 11 11 11 11 12 12 13 14 15 11 9 6 9 11 10 11 11 10 9 8 7 7 7 6 6 6 7 8 8 9 9 9 10 9 9 8 8 8 8 8 8 7
9 10 8 5 3 4 10 11 12 12 10 10 12 14 15 14 13 10 7 8 10 10 10 11 11 10 9 7 6 6 6 6 6 7 8 8 8 9 9 10 9 9 8 7 8 8 8 7 7
11 12 6 3 3 8 10 11 10 10 9 10 12 14 12 10 11 8 7 8 9 10 10 12 11 10 9 7 6 5 6 6 6 7 8 8 8 9 9 9 9 8 8 7 7 7 7 7 6
8 6 5 2 6 11 11 9 9 9 9 10 11 11 11 10 8 8 8 8 9 11 12 13 11 10 9 7 6 5 6 6 6 7 7 8 8 8 8 8 8 8 8 7 6 6 6 6 5
7 5 3 2 9 10 9 9 8 8 9 12 13 13 11 10 10 9 8 8 9 10 12 12 11 9 9 7 6 6 6 6 7 7 7 7 8 7 7 8 8 8 7 7 6 6 5 5 4
5 4 2 4 10 10 9 9 8 9 9 11 12 12 9 9 9 9 9 7 9 11 11 11 11 10 9 7 7 7 7 7 7 7 7 7 7 7 7 7 7 7 7 7 6 5 5 5 4
6 4 2 5 9 9 9 8 8 8 9 9 9 11 9 9 8 9 8 7 9 11 10 9 9 9 9 7 7 7 7 7 7 7 7 7 7 7 7 7 7 7 7 6 6 5 5 5 5
5 3 4 6 9 9 9 8 8 9 10 8 7 9 9 9 9 9 8 8 8 9 8 8 8 7 7 7 7 7 8 8 7 6 6 6 6 7 7 7 7 7 7 6 6 5 5 6 5
6 3 4 6 8 7 8 8 8 10 9 8 10 12 13 13 11 9 8 8 7 7 7 6 7 6 5 6 7 7 8 7 6 5 5 5 3 4 5 7 8 7 7 7 6 5 6 6 6
2 1 4 7 7 7 7 6 6 8 8 9 11 13 13 12 10 9 7 8 7 5 6 6 5 5 4 4 5 4 5 5 4 3 3 3 2 2 4 7 8 7 6 7 7 6 5 5 3
1 2 3 6 6 6 7 6 5 7 7 8 11 12 10 11 9 8 7 7 8 5 4 6 5 4 4 3 3 2 3 3 3 3 3 2 1 2 3 3 4 4 5 4 5 5 4 3 2
1 3 4 6 5 5 6 6 8 9 8 9 11 11 10 9 8 8 8 8 7 5 5 5 6 5 3 3 2 2 2 3 3 2 2 2 1 1 2 1 2 3 2 3 3 2 2 2 2
1 1 3 4 4 5 5 7 6 8 9 10 11 10 9 8 8 8 8 8 8 6 5 6 6 5 3 2 1 3 2 2 4 3 2 2 2 2 2 1 0 1 1 2 2 2 2 1 1
2 2 1 1 1 3 3 5 5 7 9 10 10 9 8 7 8 8 8 8 7 6 6 6 6 5 3 3 2 2 2 2 3 3 3 2 2 2 1 1 1 0 1 1 2 2 2 1 1
4 3 2 2 3 3 2 3 5 7 9 10 9 9 9 8 8 8 8 7 7 6 7 6 6 6 4 3 2 2 2 3 3 3 3 2 2 2 1 2 1 1 1 1 1 2 2 2 2
7 5 4 4 4 4 2 2 7 7 8 9 8 9 9 8 8 8 9 7 7 6 6 5 5 7 4 3 2 1 2 2 2 3 3 3 2 2 1 1 2 1 1 1 1 1 1 1 1
6 6 7 5 3 3 2 2 7 8 8 9 9 9 10 9 9 9 9 9 8 7 6 5 4 6 5 3 2 1 2 2 2 2 2 2 2 2 1 1 1 1 1 1 1 2 1 1 0
6 5 5 3 3 3 2 3 7 8 8 9 10 10 10 10 10 10 10 10 9 8 7 6 4 4 4 3 2 1 2 2 2 2 2 3 1 2 1 2 1 1 1 1 1 1 1 1 1
5 5 5 2 1 3 2 3 5 7 7 9 10 10 10 10 11 11 10 10 10 8 7 6 5 4 3 2 2 2 2 2 2 2 3 3 2 2 1 1 1 1 1 1 1 1 1 1 0
6 6 7 4 3 4 4 4 5 7 8 8 9 10 11 11 11 11 11 10 10 9 8 7 5 5 3 2 1 1 1 1 2 2 3 3 2 2 2 1 1 1 1 1 0 0 0 1 1
8 8 7 6 6 6 5 6 5 7 7 8 8 9 10 12 13 13 12 10 10 10 9 7 6 5 5 4 2 1 1 1 1 2 2 2 2 2 1 2 1 1 1 2 1 1 0 0 0
8 9 7 7 7 6 5 5 6 7 8 8 8 9 9 12 13 13 12 11 10 10 10 8 7 6 5 4 3 3 3 2 2 2 2 3 3 2 2 2 2 1 1 1 2 1 1 1 1
9 8 6 7 7 10 8 6 5 8 9 9 9 9 9 10 13 14 13 12 10 10 10 9 7 6 5 4 4 3 2 2 2 2 2 3 3 3 3 3 2 2 1 1 1 1 1 1 1
10 9 8 9 8 11 11 7 5 6 9 9 9 8 8 10 11 12 13 11 10 10 10 10 8 6 6 5 4 3 3 2 2 2 2 2 2 3 3 3 2 2 1 1 1 1 2 1 1
12 8 6 7 7 8 7 5 2 4 7 8 8 8 8 8 10 11 12 12 10 10 10 9 9 8 6 6 5 4 3 3 3 3 3 3 2 2 3 3 3 2 2 2 1 2 2 1 1
11 11 9 8 7 5 5 5 3 4 6 7 8 8 8 9 10 11 11 12 11 11 10 10 9 8 7 7 5 4 4 3 3 3 2 2 1 1 3 3 3 3 2 2 2 2 2 2 2
12 12 13 12 11 8 5 4 3 5 6 8 9 9 9 8 8 9 10 10 10 10 9 10 10 8 7 7 6 5 4 4 2 2 2 1 1 2 2 3 3 3 3 3 2 2 2 2 2
14 13 10 9 8 8 6 6 4 6 6 7 8 9 8 7 8 8 8 7 7 7 7 8 9 9 7 7 6 6 5 4 3 2 1 1 1 1 0 2 3 3 3 2 2 2 2 2 2
12 13 11 8 8 9 6 2 1 4 5 6 7 9 8 7 8 7 7 7 7 7 7 8 8 8 7 6 5 4 5 4 3 2 1 1 1 1 1 1 1 2 2 2 2 2 2 2 2
10 11 11 8 7 7 6 3 1 1 3 4 7 8 7 6 6 8 7 5 5 6 5 5 6 6 6 5 5 5 4 4 3 2 2 2 1 1 1 1 1 2 2 2 2 2 2 2 2
Wind_Direction
208 221 222 239 245 234 61 61 64 61 58 56 53 61 61 49 52 80 97 91 98 106 115 119 112 108 103 100 99 100 100 98 97 100 111 118 120 125 127 129 129 130 130 131 134 131 130 130 129
234 234 233 247 277 53 65 66 66 64 65 69 66 66 67 63 70 89 94 96 104 112 115 112 115 112 109 103 101 102 104 104 104 108 113 120 123 127 130 131 131 128 127 130 133 132 131 130 129
249 250 257 248 39 60 62 65 73 74 69 69 73 64 57 65 73 90 103 112 111 112 113 114 120 118 114 108 105 107 110 113 110 115 117 120 124 126 127 130 131 129 130 130 131 131 130 129 129
246 239 239 258 67 66 68 69 79 78 78 75 76 74 65 64 81 99 113 111 112 112 112 118 122 123 120 114 111 114 114 117 122 122 122 121 122 124 126 129 132 131 129 128 129 129 132 133 131
245 261 253 66 70 70 71 71 69 66 72 75 80 84 81 80 92 103 102 100 104 106 110 120 123 126 123 113 110 115 120 121 124 125 125 125 126 127 127 130 134 133 134 132 130 134 139 138 139
263 262 286 70 77 74 69 74 77 69 76 88 95 93 85 96 98 98 94 100 102 105 109 120 125 124 120 115 111 116 125 127 127 127 130 130 131 132 132 135 137 137 137 137 138 144 148 150 156
253 294 359 63 80 74 68 69 76 79 71 70 93 99 106 106 109 109 105 97 95 100 110 124 130 132 130 127 124 129 137 136 132 133 137 141 145 144 143 141 142 145 145 146 150 157 162 164 172
269 300 359 57 71 75 76 70 68 78 75 67 81 101 118 125 123 112 107 97 97 103 113 126 127 126 138 140 143 144 140 139 139 145 153 158 163 161 159 151 148 153 155 159 163 172 178 176 181
263 294 8 47 69 79 84 85 86 91 90 81 72 97 122 128 124 120 117 107 94 93 100 108 112 123 134 136 136 153 148 146 152 159 167 175 180 159 158 150 151 163 169 173 178 187 191 189 195
242 27 36 48 71 84 85 85 102 104 99 95 92 102 121 128 127 121 118 116 104 97 106 106 106 118 125 118 132 151 150 144 161 144 162 180 158 133 133 141 155 167 177 182 187 196 198 210 203
297 43 52 54 59 81 88 82 76 96 99 109 114 120 128 131 129 126 123 111 106 109 102 104 108 98 97 101 135 136 127 135 143 127 136 127 127 126 130 147 158 174 182 187 179 199 206 200 189
293 27 37 59 58 73 85 76 69 71 83 109 118 126 133 134 133 126 119 115 118 121 113 105 104 91 75 96 109 119 120 127 127 129 113 118 115 99 103 128 153 169 167 163 157 178 177 174 184
322 358 49 56 69 63 84 79 81 92 99 107 120 132 141 142 130 125 129 126 121 120 113 102 103 100 96 87 77 100 98 116 121 119 113 116 114 96 92 87 91 146 141 144 147 151 148 156 198
325 356 47 54 102 115 99 105 110 109 118 121 130 138 144 136 131 128 130 128 131 135 122 113 113 107 110 115 107 109 111 112 114 115 117 116 114 118 138 144 127 87 106 130 155 159 159 182 174
293 275 245 231 210 162 138 119 114 125 130 133 141 145 144 141 137 140 137 136 139 133 121 126 124 118 119 118 123 118 128 112 112 117 123 120 125 141 161 148 145 161 150 144 161 168 170 176 162
266 275 267 240 218 166 194 141 130 145 146 146 153 150 149 150 151 147 141 142 140 134 127 132 131 124 121 110 96 82 94 104 117 119 119 125 128 135 168 141 135 165 154 161 162 168 170 129 142
251 243 244 230 199 184 195 146 145 161 157 154 160 161 159 158 160 154 155 152 143 132 127 127 122 126 134 137 139 135 99 93 103 111 121 131 147 148 155 119 119 180 147 149 147 114 113 147 200
243 242 249 239 185 212 200 177 158 170 170 165 167 167 166 166 167 164 160 152 145 139 131 134 136 126 139 142 151 152 129 128 128 122 119 130 144 136 131 129 137 167 117 99 88 117 167 206 219
270 296 287 275 253 258 219 208 179 174 182 173 170 167 168 170 167 163 161 155 150 145 141 142 148 139 142 144 161 168 157 163 157 150 138 142 157 158 163 101 145 166 123 134 126 127 174 207 191
266 262 270 264 235 250 253 240 203 181 190 179 171 169 169 167 162 161 165 162 157 152 149 147 155 149 155 156 157 149 158 175 158 142 137 153 167 176 179 161 193 166 160 142 159 179 262 230 160
267 256 257 267 267 250 252 260 218 179 180 172 174 173 174 169 167 167 168 167 164 162 160 163 164 160 169 168 166 178 147 167 141 148 149 171 172 181 239 161 211 200 195 159 192 208 182 279 287
260 269 276 283 281 278 249 251 215 196 183 174 175 176 180 171 167 167 169 169 171 167 164 158 161 166 166 173 179 184 178 185 176 178 163 175 182 188 195 194 197 228 231 157 193 169 234 227 264
266 277 288 286 281 281 258 252 225 195 176 170 176 179 178 169 167 168 169 167 173 170 164 159 159 166 166 178 182 200 195 184 184 182 164 174 183 191 197 197 197 206 221 206 211 156 240 253 271
266 268 271 264 259 260 254 242 218 187 173 170 169 170 169 166 163 163 159 160 173 170 166 162 156 163 170 179 186 197 209 206 199 201 175 196 190 191 195 187 191 201 207 217 212 198 230 267 308
250 250 253 254 251 255 256 236 207 173 159 156 155 158 160 156 155 155 155 159 175 173 167 159 157 167 174 180 190 193 208 215 209 228 206 206 200 175 187 199 188 203 211 214 212 212 241 238 260
242 246 253 263 256 248 243 247 161 158 146 147 149 149 153 155 158 158 160 164 176 174 167 162 159 168 178 181 186 188 191 216 219 219 247 210 217 193 184 194 191 197 206 215 210 220 213 215 234
250 246 255 266 266 267 236 203 190 159 152 154 148 150 154 153 153 160 163 166 169 167 167 166 161 169 179 182 184 185 190 211 221 206 236 242 243 223 185 188 189 197 198 210 210 222 232 211 215
252 257 258 257 273 281 268 218 198 171 161 155 151 148 142 149 154 158 154 148 148 148 160 162 158 165 174 179 189 186 189 203 214 213 200 252 264 302 194 202 196 197 194 204 221 230 230 224 223
235 246 258 275 273 267 265 271 202 192 171 164 155 141 145 152 157 156 144 141 144 148 160 158 157 160 168 178 183 182 175 184 198 203 201 213 295 308 284 206 216 203 195 200 215 224 226 224 234
250 252 253 256 264 271 270 254 258 179 184 170 140 133 134 148 143 134 130 130 137 144 144 144 149 156 165 167 173 183 168 176 193 189 187 188 208 237 253 228 231 229 199 194 215 237 240 232 234